Location: Cañada de la Miga
(34.7595°N, 106.2317°W)
Time: 03:59:53
(UTC+00:00)

Vanguard 3 - All Passes

Search period start: 28 November 2021 00:00
Search period end: 08 December 2021 00:00
Orbit: 509 x 3260 km, 33.3° (Epoch: 27 November)

Date Brightness Start Highest point End Pass type
(mag) Time Alt. Az. Time Alt. Az. Time Alt. Az.
28 Nov - 09:06:15 10° S 09:21:09 28° SE 09:34:45 10° E visible
28 Nov - 11:17:29 10° SW 11:36:35 57° SSE 11:50:31 10° E visible
28 Nov - 13:33:57 10° WSW 13:52:15 81° S 14:03:05 10° E daylight
28 Nov - 15:52:22 10° W 16:06:42 79° S 16:14:27 10° ESE daylight
28 Nov - 18:10:01 10° W 18:18:46 36° SW 18:24:05 10° SSE daylight
29 Nov - 07:54:50 10° SSE 08:04:54 17° SE 08:14:56 10° ESE visible
29 Nov - 10:01:46 10° SSW 10:19:46 44° SSE 10:34:54 10° E visible
29 Nov - 12:16:07 10° WSW 12:35:41 73° SSE 12:48:41 10° E visible
29 Nov - 14:34:05 10° W 14:51:07 85° S 15:00:42 10° E daylight
29 Nov - 16:52:21 10° W 17:04:37 59° SSW 17:11:24 10° SE daylight
29 Nov - 19:10:55 10° W 19:15:17 15° SW 19:18:41 10° SSW daylight
30 Nov - 08:47:33 10° SSW 09:03:08 32° SE 09:18:01 10° E visible
30 Nov - 10:59:12 10° SW 11:18:44 62° SSE 11:33:42 10° E visible
30 Nov - 13:15:46 10° WSW 13:34:50 83° S 13:46:33 10° E visible
30 Nov - 15:34:18 10° W 15:49:40 76° SSW 15:58:05 10° ESE daylight
30 Nov - 17:52:24 10° W 18:01:47 34° SW 18:07:33 10° SSE daylight
01 Dec - 07:35:29 10° S 07:46:56 20° SE 07:58:47 10° E visible
01 Dec - 09:43:28 10° SW 10:01:43 49° SSE 10:17:57 10° E visible
01 Dec - 11:57:58 10° WSW 12:17:57 77° SSE 12:31:57 10° E visible
01 Dec - 14:15:56 10° W 14:33:52 84° S 14:44:16 10° E daylight
01 Dec - 16:34:23 10° W 16:47:35 56° SSW 16:54:59 10° SE daylight
01 Dec - 18:53:56 10° W 18:58:14 14° SW 19:01:39 10° SSW daylight
02 Dec - 08:29:09 10° SSW 08:45:01 36° SE 09:01:01 10° E visible
02 Dec - 10:41:06 10° SW 11:00:45 66° SSE 11:16:45 10° E visible
02 Dec - 12:57:39 10° W 13:17:19 85° S 13:29:57 10° E visible
02 Dec - 15:16:10 10° W 15:32:30 74° SSW 15:41:39 10° ESE daylight
02 Dec - 17:34:42 10° W 17:44:42 32° SW 17:50:57 10° SSE daylight
03 Dec - 07:16:43 10° S 07:28:53 23° SE 07:42:06 10° E visible
03 Dec - 09:25:24 10° SW 09:43:35 53° SSE 10:00:48 10° E visible
03 Dec - 11:39:56 10° WSW 12:00:09 80° SSE 12:15:07 10° E visible
03 Dec - 13:57:48 10° W 14:16:29 83° S 14:27:44 10° ESE daylight
03 Dec - 16:16:21 10° W 16:30:26 52° SSW 16:38:29 10° SE daylight
03 Dec - 18:37:00 10° WSW 18:41:04 13° SW 18:44:24 10° SSW daylight
04 Dec - 06:09:53 10° SE 06:13:21 11° SE 06:16:58 10° ESE visible
04 Dec - 08:11:02 10° SSW 08:26:50 39° SE 08:43:47 10° E visible
04 Dec - 10:23:10 10° WSW 10:42:43 70° SSE 10:59:41 10° E visible
04 Dec - 12:39:37 10° W 12:59:40 86° S 13:13:15 10° E visible
04 Dec - 14:58:00 10° W 15:15:12 71° SSW 15:25:08 10° ESE daylight
04 Dec - 17:16:55 10° W 17:27:28 30° SW 17:34:13 10° SSE daylight
05 Dec - 06:58:21 10° S 07:10:47 26° SE 07:25:02 10° E visible
05 Dec - 09:07:33 10° SW 09:25:24 57° SSE 09:43:31 10° ENE visible
05 Dec - 11:22:02 10° WSW 11:42:16 82° S 11:58:11 10° E visible
05 Dec - 13:39:40 10° W 13:59:00 82° S 14:11:07 10° ESE daylight
05 Dec - 15:58:15 10° W 16:13:07 49° SSW 16:21:51 10° SE daylight
05 Dec - 18:20:11 10° WSW 18:23:48 12° SW 18:26:53 10° SSW daylight
06 Dec - 05:49:17 10° SSE 05:55:26 13° SE 06:02:12 10° ESE night (unlit)
06 Dec - 07:53:11 10° SSW 08:08:38 43° SE 08:26:20 10° E visible
06 Dec - 10:05:24 10° WSW 10:24:37 74° SSE 10:42:30 10° E visible
06 Dec - 12:21:39 10° W 12:41:57 86° S 12:56:28 10° E visible
06 Dec - 14:39:49 10° W 14:57:45 68° SSW 15:08:31 10° ESE daylight
06 Dec - 16:59:07 10° W 17:10:06 28° SW 17:17:21 10° S daylight
07 Dec - 06:40:19 10° S 06:52:40 28° SE 07:07:41 10° E visible
07 Dec - 08:49:52 10° SW 09:07:13 61° SSE 09:26:04 10° ENE visible
07 Dec - 11:04:16 10° WSW 11:24:19 84° S 11:41:09 10° E visible
07 Dec - 13:21:35 10° W 13:41:22 80° SSW 13:54:24 10° ESE visible
07 Dec - 15:40:08 10° WNW 15:55:38 47° SW 16:05:07 10° SE daylight
07 Dec - 18:03:44 10° WSW 18:06:25 11° SW 18:08:51 10° SW daylight
